ATLAS CENTAUR 2

Last updated on Sun Apr 12 2026 00:02:16 GMT+0000 (Coordinated Universal Time)

1 00694U 63047A 26101.41826464 .00002388 00000+0 28181-3 0 9997 2 00694 30.3557 12.7191 0546756 8.7539 352.2168 14.12227960136258
UTC large
Height (km)
Speed (km/s)
/
Latitude / Longitude
Inclination (degrees)
Orbital Period (minutes)
Azimuth
Elevation
Range (km)
Doppler Factor

Next 0 passes for location: London (51.5072 / 0.1276)

Sorry there are no passes over London.
ATLAS CENTAUR 2